Tracking 31027 objects as of 19-Jul-2025
HD Live streaming from Space Station
objects crossing your sky now

DELTA 2 DEB

Track DELTA 2 DEB now!
10-day predictions


NORAD ID: 26791
Int'l Code: 1992-019D
Perigee: 183.1 km
Apogee: 2,888.8 km
Inclination: 34.6 °
Period: 116.6 minutes
Semi major axis: 7906 km
RCS: 0.015 m2 (small)
Launch date: April 10, 1992
Source: United States (US)
Launch site: AIR FORCE EASTERN TEST RANGE (AFETR)

Note: This is SATELLITE DEBRIS
Your satellite tracking list
EUTE 33A (EB 3)
Track 1 satellite(s)




NASA's NSSDC Master Catalog

Two Line Element Set (TLE):
1 26791U 92019D   25199.47981587  .00240507  81889-6  49360-3 0  9994
2 26791  34.5914 109.9174 1710962  26.2131 341.5800 12.34780634699525
Source of the keplerian elements: AFSPC